When you browse on this site, cookies collect data to enhance your experience and personalize the content and advertising you see.
Visit our Privacy Policy to learn more. By continuing to use the site, you agree to this use of cookies and data.
  • In Latvia
  • List of Countries
  • For 7 days
  • Water Temperature
  • Satellite Maps
  • Weather Map
  • Weather Widgets
  • user-avatar
    Login

    Hourly Weather Zapalow

    Today, 19 February, Tuesday

    Time Temperature Precipitation Wind Pressure Humidity
    00:00 +4°C° 0 mm 2 mps 747 mmHg 87%
    01:00 +3°C° 0 mm 2 mps 747 mmHg 87%
    02:00 +3°C° 0 mm 2 mps 747 mmHg 88%
    03:00 +2°C° 0 mm 2 mps 747 mmHg 88%
    04:00 +2°C° 0 mm 2 mps 747 mmHg 88%
    05:00 +2°C° 0 mm 2 mps 746 mmHg 87%
    06:00 +2°C° 0 mm 2 mps 746 mmHg 87%
    07:00 +2°C° 0 mm 2 mps 746 mmHg 87%
    08:00 +1°C° 0 mm 2 mps 746 mmHg 87%
    09:00 +3°C° 0 mm 2 mps 746 mmHg 81%
    10:00 +5°C° 0 mm 2 mps 745 mmHg 74%
    11:00 +7°C° 0 mm 3 mps 745 mmHg 67%
    12:00 +8°C° 0 mm 3 mps 745 mmHg 63%
    13:00 +8°C° 0 mm 4 mps 745 mmHg 59%
    14:00 +11°C° 0 mm 4 mps 744 mmHg 54%
    15:00 +10°C° 0 mm 4 mps 744 mmHg 57%
    16:00 +10°C° 0 mm 4 mps 744 mmHg 60%
    17:00 +9°C° 0 mm 3 mps 743 mmHg 62%
    18:00 +7°C° 0 mm 4 mps 743 mmHg 67%
    19:00 +6°C° 0 mm 4 mps 743 mmHg 72%
    20:00 +5°C° 0 mm 4 mps 743 mmHg 76%
    21:00 +4°C° 0 mm 4 mps 743 mmHg 78%
    22:00 +4°C° 0 mm 4 mps 743 mmHg 79%
    23:00 +3°C° 0 mm 5 mps 743 mmHg 80%

    Tomorrow, 20 February, Wednesday

    Time Temperature Precipitation Wind Pressure Humidity
    00:00 +3°C° 0 mm 4 mps 743 mmHg 82%
    01:00 +3°C° 0 mm 4 mps 743 mmHg 83%
    02:00 +3°C° 0 mm 4 mps 744 mmHg 84%
    03:00 +3°C° 0.4 mm 4 mps 743 mmHg 85%
    04:00 +3°C° 0.4 mm 4 mps 743 mmHg 86%
    05:00 +2°C° 0.4 mm 5 mps 743 mmHg 87%
    06:00 +2°C° 0.1 mm 5 mps 743 mmHg 89%
    07:00 +3°C° 0.1 mm 4 mps 744 mmHg 91%
    08:00 +1°C° 0.1 mm 4 mps 744 mmHg 93%
    09:00 +2°C° 0.1 mm 5 mps 744 mmHg 89%
    10:00 +3°C° 0.1 mm 6 mps 744 mmHg 84%
    11:00 +3°C° 0.1 mm 6 mps 745 mmHg 80%
    12:00 +3°C° 0.1 mm 6 mps 745 mmHg 76%
    13:00 +4°C° 0.1 mm 6 mps 745 mmHg 73%
    14:00 +4°C° 0.1 mm 6 mps 745 mmHg 69%
    15:00 +4°C° 0.1 mm 6 mps 745 mmHg 68%
    16:00 +4°C° 0.1 mm 6 mps 745 mmHg 68%
    17:00 +5°C° 0.1 mm 5 mps 746 mmHg 67%
    18:00 +3°C° 0.1 mm 5 mps 746 mmHg 70%
    19:00 +3°C° 0.1 mm 5 mps 746 mmHg 73%
    20:00 +2°C° 0.1 mm 5 mps 747 mmHg 76%
    21:00 +2°C° 0.1 mm 5 mps 747 mmHg 76%
    22:00 +2°C° 0.1 mm 5 mps 747 mmHg 77%
    23:00 +3°C° 0.1 mm 4 mps 747 mmHg 77%

    Day after tomorrow, 21 February, Thursday

    Time Temperature Precipitation Wind Pressure Humidity
    00:00 +3°C° 0 mm 4 mps 747 mmHg 77%
    01:00 +3°C° 0 mm 4 mps 747 mmHg 77%
    02:00 +3°C° 0 mm 4 mps 748 mmHg 78%
    03:00 +3°C° 0 mm 4 mps 747 mmHg 80%
    04:00 +3°C° 0 mm 4 mps 747 mmHg 83%
    05:00 +3°C° 0 mm 4 mps 747 mmHg 85%
    06:00 +3°C° 0 mm 4 mps 747 mmHg 85%
    07:00 +2°C° 0 mm 5 mps 747 mmHg 86%
    08:00 +2°C° 0 mm 5 mps 747 mmHg 87%
    09:00 +3°C° 0.1 mm 5 mps 747 mmHg 81%
    10:00 +4°C° 0.1 mm 6 mps 747 mmHg 76%
    11:00 +4°C° 0.1 mm 6 mps 747 mmHg 70%
    12:00 +5°C° 0.1 mm 6 mps 747 mmHg 71%
    13:00 +5°C° 0.1 mm 6 mps 747 mmHg 71%
    14:00 +5°C° 0.1 mm 6 mps 747 mmHg 72%
    15:00 +4°C° 0.2 mm 6 mps 746 mmHg 75%
    16:00 +4°C° 0.2 mm 6 mps 746 mmHg 79%
    17:00 +4°C° 0.2 mm 6 mps 745 mmHg 82%
    18:00 +4°C° 0.8 mm 6 mps 745 mmHg 84%
    19:00 +4°C° 0.8 mm 6 mps 745 mmHg 86%
    20:00 +4°C° 0.8 mm 6 mps 745 mmHg 88%
    21:00 +4°C° 0.4 mm 6 mps 746 mmHg 89%
    22:00 +4°C° 0.4 mm 6 mps 746 mmHg 90%
    23:00 +4°C° 0.4 mm 6 mps 746 mmHg 90%

    22 February, Friday

    Time Temperature Precipitation Wind Pressure Humidity
    00:00 +4°C° 0.3 mm 6 mps 746 mmHg 91%
    01:00 +5°C° 0.3 mm 5 mps 746 mmHg 91%
    02:00 +5°C° 0.3 mm 5 mps 746 mmHg 92%
    03:00 +3°C° 0.6 mm 6 mps 747 mmHg 90%
    04:00 +2°C° 0.6 mm 6 mps 747 mmHg 88%
    05:00 0°C° 0.6 mm 7 mps 747 mmHg 86%
    06:00 -1°C° 0.1 mm 7 mps 749 mmHg 83%
    07:00 -2°C° 0.1 mm 7 mps 750 mmHg 79%
    08:00 -3°C° 0.1 mm 6 mps 751 mmHg 75%
    09:00 -3°C° 0 mm 6 mps 752 mmHg 70%
    10:00 -3°C° 0 mm 6 mps 753 mmHg 65%
    11:00 -2°C° 0 mm 5 mps 754 mmHg 60%
    12:00 -3°C° 0 mm 6 mps 755 mmHg 58%
    13:00 -3°C° 0 mm 6 mps 755 mmHg 56%
    14:00 -3°C° 0 mm 6 mps 756 mmHg 53%
    15:00 -3°C° 0 mm 6 mps 757 mmHg 53%
    16:00 -4°C° 0 mm 6 mps 757 mmHg 53%
    17:00 -4°C° 0 mm 6 mps 758 mmHg 53%
    18:00 -5°C° 0 mm 5 mps 758 mmHg 52%
    19:00 -5°C° 0 mm 5 mps 759 mmHg 51%
    20:00 -5°C° 0 mm 4 mps 760 mmHg 51%
    21:00 -5°C° 0 mm 4 mps 760 mmHg 49%
    22:00 -5°C° 0 mm 4 mps 761 mmHg 47%
    23:00 -5°C° 0 mm 4 mps 761 mmHg 45%

    23 February, Saturday

    Time Temperature Precipitation Wind Pressure Humidity
    00:00 -4°C° 0 mm 3 mps 762 mmHg 44%
    01:00 -4°C° 0 mm 3 mps 762 mmHg 43%
    02:00 -4°C° 0 mm 3 mps 762 mmHg 42%
    03:00 -5°C° 0 mm 3 mps 762 mmHg 42%
    04:00 -4°C° 0 mm 2 mps 762 mmHg 42%
    05:00 -4°C° 0 mm 2 mps 761 mmHg 42%
    06:00 -4°C° 0 mm 2 mps 762 mmHg 43%
    07:00 -4°C° 0 mm 2 mps 762 mmHg 43%
    08:00 -4°C° 0 mm 2 mps 762 mmHg 43%
    09:00 -3°C° 0 mm 2 mps 762 mmHg 38%
    10:00 -2°C° 0 mm 2 mps 761 mmHg 34%
    11:00 -1°C° 0 mm 2 mps 761 mmHg 29%
    12:00 -1°C° 0 mm 2 mps 761 mmHg 30%
    13:00 -1°C° 0 mm 3 mps 760 mmHg 30%
    14:00 -1°C° 0 mm 3 mps 760 mmHg 30%
    15:00 -1°C° 0 mm 3 mps 759 mmHg 35%
    16:00 -1°C° 0 mm 3 mps 758 mmHg 40%
    17:00 -2°C° 0 mm 3 mps 758 mmHg 45%
    18:00 -2°C° 0 mm 3 mps 757 mmHg 47%
    19:00 -2°C° 0 mm 2 mps 757 mmHg 49%
    20:00 -2°C° 0 mm 2 mps 757 mmHg 51%
    21:00 -1°C° 0 mm 2 mps 757 mmHg 50%
    22:00 -1°C° 0 mm 2 mps 757 mmHg 49%
    23:00 -1°C° 0 mm 2 mps 757 mmHg 48%

    24 February, Sunday

    Time Temperature Precipitation Wind Pressure Humidity
    00:00 -1°C° 0 mm 2 mps 757 mmHg 50%
    01:00 -1°C° 0 mm 2 mps 756 mmHg 52%
    02:00 -1°C° 0 mm 2 mps 756 mmHg 54%
    03:00 -2°C° 0 mm 2 mps 756 mmHg 59%
    04:00 -2°C° 0 mm 2 mps 756 mmHg 64%
    05:00 0°C° 0 mm 1 mps 756 mmHg 69%
    06:00 -2°C° 0 mm 2 mps 756 mmHg 72%
    07:00 -2°C° 0 mm 2 mps 756 mmHg 74%
    08:00 -2°C° 0 mm 2 mps 756 mmHg 77%
    09:00 -1°C° 0 mm 2 mps 756 mmHg 77%
    10:00 +1°C° 0 mm 2 mps 756 mmHg 78%
    11:00 +1°C° 0 mm 3 mps 756 mmHg 78%
    12:00 +1°C° 0 mm 3 mps 756 mmHg 81%
    13:00 +2°C° 0 mm 3 mps 755 mmHg 84%
    14:00 +2°C° 0 mm 3 mps 755 mmHg 87%
    15:00 +2°C° 0 mm 3 mps 754 mmHg 88%
    16:00 +2°C° 0 mm 3 mps 754 mmHg 90%
    17:00 +3°C° 0 mm 2 mps 753 mmHg 92%
    18:00 +2°C° 0 mm 3 mps 753 mmHg 93%
    19:00 +1°C° 0 mm 3 mps 752 mmHg 93%
    20:00 +1°C° 0 mm 3 mps 752 mmHg 94%
    21:00 0°C° 0 mm 3 mps 751 mmHg 94%
    22:00 0°C° 0 mm 3 mps 751 mmHg 95%
    23:00 -1°C° 0 mm 4 mps 750 mmHg 95%
    Show more